Terminal Aerodrome Forecast
Issued by NWS

Home | Current Version | Previous Version | Text Only | Print | Product List | Glossary On
Versions: 1 2 3 4 5 6 7 8 9 10 11 12 13 14 15 16 17 18 19 20 21 22 23 24 25 26 27 28 29 30 31 32 33 34 35 36 37 38 39 40 41 42 43 44 45 46
196
FTUS43 KGLD 132322
TAFMCK
TAF
KMCK 132322Z 1400/1424 17010KT 5SM BR OVC015
     FM140300 19010KT P6SM OVC025
     FM140600 28011KT P6SM SCT150
     FM141200 29012KT P6SM BKN130=

USA.gov is the U.S. government's official web portal to all federal, state and local government web resources and services.